Satellite: RS-38 Catalog number: 35869 Epoch time: 11265.67375643 Element set: 724 Inclination: 098.6926 deg RA of node: 319.5162 deg Eccentricity: 0.0005217 Arg of perigee: 102.0818 deg Mean anomaly: 258.0898 deg Mean motion: 14.22022361 rev/day Decay rate: 1.77e-06 rev/day^2 Epoch rev: 10445 Checksum: 315
Satellite: ARISSAT1 Catalog number: 37772 Epoch time: 11265.72072316 Element set: 152 Inclination: 051.6396 deg RA of node: 029.2950 deg Eccentricity: 0.0010444 Arg of perigee: 238.8320 deg Mean anomaly: 259.1825 deg Mean motion: 15.64233989 rev/day Decay rate: 7.2740e-04 rev/day^2 Epoch rev: 772 Checksum: 299
/EX